Torna al catalogo

DELTA 1 DEB

AttivoSSO
NORAD 21470·DEBRIS·🇺🇸 United States

Lanciato Jun 12, 1975 da Vandenberg Space Force Base

Loading…

Prossimi Passaggi (prossime 24 ore)

TLE

AggiornatoSource: Space-Track

Epoca: Sep 13, 2026, 09:31 UTC

1 21470U 75052FE  26256.39674818  .00000116  00000-0  24213-3 0  9993
2 21470  99.7253  61.5330 0099080  48.2675  20.5980 13.50037621738759

Traccia DELTA 1 DEB in tempo reale con AllMySat

Download on the App Store